User: anonymous   Login
Location: Camaret
(48.2753°N, 4.5961°W)
Time: 12:02:13
(UTC+00:00)
Language:

Cosmos 2058 Rocket - Orbit

View from above orbital plane
View from above orbital plane
View from above satellite
View from above satellite

Ground track
Ground track

The orbit data is extracted from the following two-line orbital elements,

1 20466U 90010B   21016.85313079  .00000072  00000-0  61985-5 0  9997
2 20466  82.5016 227.0555 0020504   0.7893 359.3350 14.81407567650323
Epoch (UTC): 16 January 2021 20:28:30
Eccentricity: 0.0020504
inclination: 82.5016°
perigee height: 610 km
apogee height: 639 km
right ascension of ascending node: 227.0555°
argument of perigee: 0.7893°
revolutions per day: 14.81407567
mean anomaly at epoch: 359.3350°
orbit number at epoch: 65032

The dashed part of the orbit path shows where the satellite is in the earth's shadow,  

DLR